Terre Haute, IN

5:35 AM EST on November 15, 2019 (GMT -0500)
Terre Haute International-Hulman

Weather History for KHUF - September, 2019

Change the Weather History Date:

Sunday, September 22, 2019

  Actual Average Record
Temperature  
Mean Temperature 77 °F 63 °F  
Max Temperature 88 °F 76 °F 97 °F (1955)
Min Temperature 66 °F 51 °F 33 °F (1999)
Degree Days  
Heating Degree Days 0 4  
Month to date heating degree days 0 31  
Since 1 July heating degree days 0 36  
Cooling Degree Days 12 2  
Month to date cooling degree days 187 85  
Year to date cooling degree days 1215 964  
Growing Degree Days 26 (Base 50)    
Moisture  
Dew Point 63 °F    
Average Humidity 62    
Maximum Humidity 81    
Minimum Humidity 43    
Precipitation  
Precipitation 0.36 in 0.10 in 0.73 in (1965)
Month to date precipitation 0.70 2.64  
Year to date precipitation 37.50 33.92  
Sea Level Pressure  
Sea Level Pressure 30.00 in    
Wind  
Wind Speed 11 mph (SSW)    
Max Wind Speed 24 mph    
Max Gust Speed 33 mph    
Visibility 9 miles    
Events Rain    
T = Trace of Precipitation, MM = Missing Value Source: NWS Daily Summary

Daily Weather History Graph

Daily Weather History Graph

Search for Another Location

Airport or City:

Astronomy

Sep. 22, 2019 Rise Set
Actual Time 7:36 AM EDT 7:46 PM EDT
Civil Twilight 7:09 AM EDT 8:13 PM EDT
Nautical Twilight 6:38 AM EDT 8:44 PM EDT
Astronomical Twilight 6:06 AM EDT 9:16 PM EDT
Moon 12:27 AM EDT (9/22) 3:39 PM EDT (9/22)
Length of Visible Light 13h 03m
Length of Day
12h 09m
Last Quarter, 44% of the Moon is Illuminated
Sep 22
Last Quarter
Sep 28
New
Oct 5
First Quarter
Oct 13
Full
Oct 21
Last Quarter

Hourly Weather History & Observations

Time (EDT) Temp. Heat Index Dew Point Humidity Pressure Visibility Wind Dir Wind Speed Gust Speed Precip Events Conditions
12:53 AM 70.0 °F - 60.1 °F 71% 30.08 in 10.0 mi South 4.6 mph - N/A   Clear
1:53 AM 70.0 °F - 60.1 °F 71% 30.08 in 10.0 mi SSE 4.6 mph - N/A   Clear
2:53 AM 66.9 °F - 60.1 °F 79% 30.08 in 10.0 mi South 5.8 mph - N/A   Clear
3:53 AM 66.9 °F - 59.0 °F 76% 30.07 in 10.0 mi South 6.9 mph - N/A   Clear
4:53 AM 66.9 °F - 59.0 °F 76% 30.06 in 10.0 mi South 6.9 mph - N/A   Clear
5:53 AM 70.0 °F - 59.0 °F 68% 30.06 in 10.0 mi South 9.2 mph - N/A   Clear
6:53 AM 68.0 °F - 59.0 °F 73% 30.06 in 10.0 mi South 6.9 mph - N/A   Clear
7:53 AM 69.1 °F - 59.0 °F 70% 30.05 in 10.0 mi South 10.4 mph - N/A   Clear
8:53 AM 72.0 °F - 60.1 °F 66% 30.06 in 10.0 mi SSW 15.0 mph 20.7 mph N/A   Clear
9:12 AM 73.0 °F - 60.1 °F 64% 30.07 in 10.0 mi South 10.4 mph - N/A   Partly Cloudy
9:53 AM 75.9 °F - 60.1 °F 58% 30.06 in 10.0 mi SSW 12.7 mph - N/A   Clear
10:53 AM 79.0 °F - 61.0 °F 54% 30.05 in 10.0 mi SSW 12.7 mph 21.9 mph N/A   Clear
11:53 AM 82.0 °F 82.7 °F 61.0 °F 49% 30.03 in 10.0 mi SW 16.1 mph 26.5 mph N/A   Clear
12:53 PM 84.0 °F 84.4 °F 61.0 °F 46% 30.01 in 10.0 mi SSW 15.0 mph 26.5 mph N/A   Clear
1:53 PM 87.1 °F 87.5 °F 62.1 °F 43% 29.99 in 10.0 mi SSW 17.3 mph 24.2 mph N/A   Clear
2:53 PM 86.0 °F 86.8 °F 63.0 °F 46% 29.98 in 10.0 mi SSW 18.4 mph 28.8 mph N/A   Mostly Cloudy
3:53 PM 86.0 °F 87.3 °F 64.0 °F 48% 29.95 in 10.0 mi SSW 15.0 mph 20.7 mph N/A   Overcast
4:53 PM 84.9 °F 86.6 °F 64.9 °F 51% 29.92 in 10.0 mi South 13.8 mph 28.8 mph N/A   Scattered Clouds
5:53 PM 86.0 °F 87.6 °F 64.9 °F 49% 29.91 in 10.0 mi SSW 12.7 mph - N/A   Partly Cloudy
6:53 PM 84.0 °F 85.4 °F 64.0 °F 51% 29.89 in 10.0 mi South 11.5 mph - N/A   Partly Cloudy
7:53 PM 82.0 °F 83.4 °F 64.0 °F 54% 29.89 in 10.0 mi South 10.4 mph - N/A   Scattered Clouds
8:53 PM 82.0 °F 83.1 °F 63.0 °F 52% 29.90 in 10.0 mi SSW 8.1 mph - 0.00 in   Overcast
9:16 PM 73.0 °F - 70.0 °F 90% 29.95 in 6.0 mi WNW 10.4 mph 23.0 mph 0.03 in Rain Light Rain
9:25 PM 73.0 °F - 70.0 °F 90% 29.95 in 1.8 mi WSW 5.8 mph - 0.14 in Rain Heavy Rain
9:33 PM 73.0 °F - 70.0 °F 90% 29.96 in 2.0 mi West 6.9 mph - 0.18 in Rain Light Rain
9:42 PM 73.0 °F - 70.0 °F 90% 29.96 in 5.0 mi West 10.4 mph - 0.20 in Rain Light Rain
9:53 PM 73.0 °F - 70.0 °F 90% 29.95 in 9.0 mi West 10.4 mph - 0.21 in Rain Light Rain
10:53 PM 72.0 °F - 70.0 °F 93% 29.95 in 10.0 mi WSW 5.8 mph - 0.01 in   Mostly Cloudy
11:53 PM 72.0 °F - 70.0 °F 93% 29.96 in 5.0 mi SSW 11.5 mph - 0.12 in Rain Rain